This is the latest recevied weather packets stored in our database for station/object KA7EII-13. If no packets are shown the sender has not sent any weather packets the latest 10 day(s).
| Time | Temp. | Humidity | Pressure | Rain* | Wind** | Luminosity | Snow |
|---|---|---|---|---|---|---|---|
| 1778001925 | 14.44° C | 30% | 1100.4 hPa | 0 mm | - | 803 W/m² | - |
| 1778001621 | 15° C | 29% | 1100.4 hPa | 0 mm | - | 842 W/m² | - |
| 1778001316 | 15° C | 30% | 1100.7 hPa | 0 mm | - | 813 W/m² | - |
| 1778001014 | 14.44° C | 31% | 1100.4 hPa | 0 mm | - | 757 W/m² | - |
| 1778000710 | 14.44° C | 33% | 1100.5 hPa | 0 mm | - | 765 W/m² | - |
| 1778000406 | 15° C | 30% | 1100.6 hPa | 0 mm | - | 782 W/m² | - |
| 1778000102 | 13.89° C | 34% | 1100.8 hPa | 0 mm | - | 762 W/m² | - |
| 1777999798 | 14.44° C | 32% | 1100.5 hPa | 0 mm | - | 731 W/m² | - |
| 1777999494 | 14.44° C | 34% | 1100.9 hPa | 0 mm | - | 691 W/m² | - |
| 1777999192 | 14.44° C | 35% | 1100.8 hPa | 0 mm | - | 683 W/m² | - |
| 1777998890 | 13.89° C | 34% | 1100.7 hPa | 0 mm | - | 676 W/m² | - |
| 1777998590 | 13.33° C | 35% | 1100.6 hPa | 0 mm | - | 645 W/m² | - |
| 1777998285 | 13.33° C | 36% | 1100.8 hPa | 0 mm | - | 627 W/m² | - |
| 1777997982 | 12.78° C | 36% | 1100.7 hPa | 0 mm | - | 631 W/m² | - |
| 1777997678 | 13.33° C | 37% | 1100.6 hPa | 0 mm | - | 610 W/m² | - |
| 1777997376 | 12.78° C | 38% | 1100.6 hPa | 0 mm | - | 619 W/m² | - |
| 1777997074 | 12.22° C | 39% | 1100.7 hPa | 0 mm | - | 582 W/m² | - |
| 1777996770 | 12.22° C | 39% | 1100.7 hPa | 0 mm | - | 551 W/m² | - |
| 1777996467 | 12.78° C | 39% | 1100.6 hPa | 0 mm | - | 528 W/m² | - |
| 1777996164 | 13.33° C | 41% | 1100.8 hPa | 0 mm | - | 528 W/m² | - |
| 1777995860 | 12.22° C | 41% | 1100.8 hPa | 0 mm | - | 522 W/m² | - |
| 1777995556 | 11.11° C | 43% | 1100.8 hPa | 0 mm | - | 482 W/m² | - |
| 1777995254 | 11.67° C | 42% | 1100.9 hPa | 0 mm | - | 426 W/m² | - |
| 1777994950 | 11.11° C | 43% | 1101.1 hPa | 0 mm | - | 386 W/m² | - |
| 1777994648 | 11.11° C | 44% | 1101.1 hPa | 0 mm | - | 386 W/m² | - |
* Rain latest hour (hover to see other rain measurements)
** Current wind speed in m/s (hover to see current wind gust speed)